GFSGL_925_temp_231.txt.gz
Temp
23 23 23 22 23 24 24 24 24 24 24 24 24 24 24 24 24 23 24 24 24 24 23 24 24 24 24 25 22 23 22 21 20 23 23 24 24 24 24 24 24 23 23
22 23 23 22 23 24 24 25 24 24 24 24 24 24 24 25 24 24 24 24 24 24 24 24 24 23 24 24 24 24 23 23 22 21 23 23 24 24 24 24 24 24 24
22 22 23 23 24 24 25 25 24 24 24 24 24 24 24 24 24 24 24 24 24 24 24 24 24 24 25 25 24 24 24 23 23 22 22 23 23 23 23 23 23 24 24
23 23 22 24 25 26 26 25 24 24 24 24 24 24 24 24 24 24 24 24 24 24 24 24 24 24 24 25 24 24 23 23 23 22 22 22 22 23 22 22 23 23 24
22 22 23 24 27 26 26 25 25 24 24 24 24 24 24 23 23 24 24 25 24 24 24 24 24 24 24 24 24 24 23 23 22 21 21 21 21 21 21 21 21 22 22
24 24 23 24 26 26 25 25 25 24 25 24 24 24 24 23 23 23 24 24 24 24 24 24 24 24 24 23 23 23 23 23 22 21 21 20 20 20 21 21 21 20 19
24 23 23 22 24 27 27 25 25 24 24 24 25 24 23 24 24 24 24 24 23 24 24 24 24 24 24 23 23 23 22 22 21 21 20 20 19 19 18 18 19 18 18
21 22 21 22 21 22 24 26 25 24 24 24 25 24 24 24 24 24 24 24 23 24 24 24 23 24 23 23 22 22 22 22 21 21 20 20 19 18 18 18 17 17 17
22 22 22 22 22 23 22 20 22 25 23 25 25 25 24 24 24 24 23 23 23 23 24 23 23 23 23 22 22 21 21 21 20 19 18 18 18 18 17 17 17 16 15
23 23 23 23 23 22 20 20 20 21 24 22 20 20 21 24 24 23 23 24 24 23 23 23 23 23 22 22 22 22 21 20 19 18 18 17 17 17 17 17 16 15 15
23 23 23 23 22 22 21 21 20 18 19 16 16 17 18 18 19 20 21 23 23 23 22 22 22 22 21 21 21 21 20 19 18 17 16 16 17 17 17 17 17 16 16
23 23 23 23 22 22 21 21 19 20 20 18 17 17 17 19 20 20 22 21 23 22 22 22 21 21 20 21 20 20 18 17 17 16 16 16 16 16 16 17 17 17 17
22 22 22 22 22 21 21 21 18 18 18 18 19 19 21 23 21 21 24 22 23 22 21 21 21 20 20 19 19 19 18 17 16 16 16 16 16 17 16 17 18 18 18
21 21 21 21 21 21 21 21 18 18 18 16 16 17 20 26 26 24 19 24 22 20 20 20 20 20 19 19 18 18 17 16 16 16 16 17 16 16 17 16 17 17 18
20 20 20 21 21 20 20 21 20 18 18 18 19 20 17 17 17 22 20 16 17 19 19 19 18 17 17 18 18 17 17 17 16 16 16 16 16 16 16 16 16 16 16
20 19 19 19 20 20 19 20 21 20 19 19 18 18 19 18 19 20 19 21 21 19 18 17 16 17 18 18 18 18 17 17 16 16 16 16 16 16 15 16 15 15 15
19 19 18 18 18 18 19 17 18 20 18 19 19 18 16 18 18 19 18 18 18 17 18 18 18 18 18 19 19 18 18 17 17 16 16 16 16 16 16 16 15 15 15
18 18 17 17 18 18 19 18 19 17 17 18 20 19 19 18 19 20 18 18 16 16 17 18 18 19 19 19 19 18 18 18 18 17 17 17 17 17 16 16 16 15 15
16 17 17 17 18 18 18 18 18 18 17 17 18 19 19 19 19 18 17 18 17 16 17 18 19 19 19 19 19 19 19 19 18 18 18 18 18 17 17 17 16 16 16
16 16 17 16 17 17 17 17 17 17 17 17 17 18 18 15 15 16 16 16 16 17 17 18 19 19 19 19 19 19 19 19 19 19 19 18 18 18 17 17 17 17 17
15 15 16 16 16 16 17 17 18 17 17 17 18 19 19 17 17 17 17 15 14 16 18 18 19 19 20 20 19 19 19 20 19 19 19 19 19 18 18 18 17 17 17
15 15 15 15 16 16 16 17 17 17 17 17 18 19 17 17 17 17 17 16 16 16 18 19 18 19 19 20 20 20 19 20 20 20 20 19 19 19 19 19 19 19 18
14 14 15 15 15 16 16 17 17 18 18 18 18 18 17 17 17 17 17 17 17 16 16 17 18 19 20 20 20 21 20 20 21 21 20 19 18 19 19 18 18 18 17
14 14 14 15 15 15 16 17 18 19 19 19 18 18 17 18 18 18 18 17 17 18 17 18 19 20 20 20 21 21 20 20 21 21 20 19 18 18 18 17 17 16 15
13 14 14 14 15 15 16 16 17 17 18 18 18 18 19 19 19 19 19 18 18 18 19 19 19 20 20 21 21 21 20 20 20 19 19 18 18 18 17 16 15 15 14
12 13 14 15 15 16 17 17 17 17 18 18 19 18 19 19 19 19 18 18 18 18 19 19 20 20 20 20 20 20 19 20 19 18 18 18 17 16 16 15 14 14 14

GFSGL_925_temp_234.txt.gz
Temp
23 23 22 23 23 22 22 22 23 24 24 23 23 23 23 24 24 23 23 23 23 23 23 23 24 23 23 24 23 22 22 21 19 22 23 24 24 23 23 23 23 23 23
23 23 23 22 23 23 23 22 22 24 24 24 24 23 23 24 24 24 23 24 23 23 24 23 24 23 23 23 23 23 23 22 21 20 22 23 24 24 24 23 23 23 23
22 23 24 24 24 23 23 22 22 24 24 24 23 24 24 24 24 24 24 24 24 23 24 23 24 23 24 23 23 23 22 22 22 21 21 22 23 23 23 23 24 24 24
23 23 23 23 23 23 23 21 25 25 24 24 23 23 24 24 23 24 24 24 23 24 24 24 24 24 24 24 24 24 23 22 22 21 21 21 22 22 22 22 23 23 23
22 22 22 21 21 21 21 25 26 25 25 25 24 23 23 23 24 24 24 23 23 23 24 24 24 24 24 24 24 24 24 23 22 21 20 20 20 21 21 21 20 21 21
21 20 21 21 22 22 25 25 26 25 25 25 25 23 23 24 24 24 23 23 23 23 24 24 24 23 23 23 23 23 23 23 22 21 21 20 20 20 20 19 19 19 20
21 21 22 22 22 22 22 21 20 21 22 23 22 25 25 23 24 24 22 22 22 23 24 24 24 23 23 23 23 22 22 22 22 21 21 20 20 20 19 18 18 17 18
22 23 23 23 22 22 21 21 21 21 21 19 18 19 20 21 21 24 23 21 22 23 24 24 23 24 23 23 22 22 22 21 21 21 21 20 19 18 18 17 17 17 17
22 23 23 23 22 21 21 20 19 19 19 19 20 20 19 19 19 20 20 21 22 23 23 23 23 23 23 23 22 22 21 21 21 21 19 19 18 17 17 16 16 15 17
23 23 23 23 22 22 21 20 20 21 22 20 22 20 22 20 21 19 20 22 21 23 23 23 22 23 23 23 22 22 21 22 21 19 18 17 17 17 17 16 16 15 15
22 22 22 22 22 22 22 20 20 21 21 22 22 23 25 21 21 20 19 21 22 21 21 22 23 22 23 22 22 21 22 22 20 19 18 17 17 17 17 17 16 16 16
22 22 21 21 22 21 21 21 18 20 19 20 21 20 22 21 21 22 20 21 22 20 21 23 24 23 22 21 21 21 21 20 18 17 16 16 16 16 16 17 17 17 17
21 21 21 20 20 21 21 21 19 18 17 18 17 17 18 16 19 23 21 19 21 20 20 23 23 21 19 20 20 20 19 18 17 16 16 16 16 16 16 17 17 17 17
20 20 20 20 20 20 21 21 20 17 17 16 15 15 16 17 17 18 18 19 19 19 19 20 20 19 18 19 18 18 17 17 16 16 16 16 16 16 16 16 17 16 17
19 20 19 19 19 19 19 20 21 21 19 18 18 17 16 16 17 18 21 20 17 18 18 18 17 16 16 16 17 17 17 16 16 16 16 16 16 16 16 16 16 16 16
18 17 18 18 18 18 18 18 20 20 20 19 19 18 18 17 17 17 20 17 18 17 17 15 15 15 16 16 17 16 16 16 16 16 16 16 16 16 16 16 16 15 15
17 16 16 16 17 17 17 16 16 20 20 18 19 18 17 17 17 16 18 19 17 16 16 15 15 15 16 17 17 17 17 17 17 16 16 16 16 16 16 16 15 15 14
17 16 16 15 15 16 16 17 17 16 17 16 19 19 19 18 17 15 18 17 16 15 16 15 16 17 17 18 18 18 17 17 17 17 17 17 17 17 17 16 16 16 15
15 15 15 15 15 16 17 16 16 16 16 16 17 18 18 18 15 14 17 17 16 15 15 17 17 18 18 18 19 19 18 18 18 17 17 17 17 17 17 17 17 17 16
14 14 14 14 14 15 15 15 15 15 15 15 16 17 17 14 14 14 14 15 17 17 18 17 18 18 19 19 19 19 19 18 18 18 18 18 18 18 17 17 17 17 17
13 14 14 14 14 14 14 14 15 15 15 15 16 17 18 17 15 14 14 15 15 16 17 18 19 19 19 19 18 19 19 19 19 18 18 18 18 18 18 18 18 17 17
14 14 14 14 14 14 14 14 15 15 15 15 16 17 17 16 16 15 16 16 16 16 17 18 19 19 19 20 19 19 19 19 19 19 19 19 19 19 19 19 19 18 17
13 14 14 14 14 14 14 14 15 15 15 15 16 16 16 16 16 15 16 17 17 16 16 15 17 18 19 19 20 19 19 19 20 20 20 19 19 19 19 18 18 17 16
11 12 13 14 14 14 14 14 14 15 15 16 17 16 17 17 16 15 16 17 18 16 15 15 15 17 18 19 19 20 19 20 20 20 20 20 20 19 18 17 17 16 16
11 11 11 13 14 14 14 14 14 15 16 16 16 17 17 16 16 16 17 18 17 16 16 16 17 17 18 19 20 20 20 20 20 20 20 20 19 18 18 17 16 15 14
11 11 12 12 13 14 14 14 14 14 15 16 17 18 18 17 17 17 18 18 18 18 17 17 18 18 19 19 19 20 20 20 20 20 19 18 18 17 16 15 15 14 14

GFSGL_925_temp_237.txt.gz
Temp
21 20 20 20 21 21 21 21 21 22 21 21 23 23 22 22 23 23 23 23 23 23 23 24 23 24 23 22 22 22 22 22 24 25 23 22 23 23 22 23 22 22 22
20 20 22 22 22 21 22 22 21 21 21 21 21 22 22 22 23 22 22 23 22 23 23 23 22 22 21 22 22 21 21 21 23 23 24 23 22 22 22 22 22 22 23
21 21 20 21 22 22 22 23 22 21 22 21 21 22 22 22 21 22 22 22 22 23 23 23 23 22 22 23 22 22 23 22 21 22 23 22 23 22 23 22 23 22 22
20 20 20 21 22 23 24 24 23 21 22 21 22 22 22 22 22 22 22 22 23 22 23 23 23 23 22 22 22 24 24 22 22 22 23 24 23 23 22 23 24 23 23
20 20 20 22 23 22 24 24 24 23 23 23 23 24 24 23 23 23 24 24 22 22 22 22 23 23 23 24 23 23 22 22 22 23 24 24 24 24 24 24 23 23 23
21 21 20 21 21 21 20 21 23 23 23 22 22 23 23 22 23 23 22 23 23 22 22 23 22 23 23 23 23 23 23 23 23 24 25 25 23 23 23 22 21 22 24
21 21 21 21 20 20 22 22 22 23 23 23 23 23 24 23 20 20 21 21 20 21 23 24 22 24 24 22 23 23 23 23 22 22 23 23 22 22 20 20 20 20 21
22 21 21 21 21 20 20 21 22 22 22 22 23 23 22 23 23 21 21 20 20 20 21 22 23 23 24 23 23 22 22 21 21 21 21 21 19 19 18 18 17 17 18
22 22 21 21 21 21 20 19 19 21 21 22 22 22 22 22 24 25 25 23 20 21 21 22 23 23 23 24 23 23 22 21 21 21 21 21 19 18 17 17 19 20 21
22 22 21 21 21 21 21 19 19 19 20 20 21 21 23 24 23 26 26 24 23 22 22 22 23 23 23 23 23 22 22 22 20 19 19 18 18 17 17 16 18 17 18
21 21 22 22 22 21 20 20 19 18 18 18 18 20 21 18 18 19 20 19 20 20 20 21 22 23 23 23 22 23 22 21 20 19 18 18 18 18 18 17 17 16 16
20 20 20 21 21 21 20 20 19 19 19 19 18 19 19 17 17 17 18 18 19 20 21 22 22 22 22 23 22 21 21 21 20 20 20 20 19 19 19 18 17 17 17
19 20 19 19 19 20 19 19 20 20 19 20 21 20 20 19 17 19 20 19 20 18 20 20 21 22 22 21 20 19 20 19 20 20 20 20 19 18 17 17 17 17 17
19 20 19 19 19 19 20 20 20 20 21 20 21 21 21 19 19 18 19 19 19 18 18 19 21 21 19 18 17 17 18 18 19 19 19 18 18 18 18 17 17 17 17
19 19 19 19 19 19 19 19 20 20 20 21 20 20 21 20 19 17 19 18 19 18 17 17 17 16 15 16 16 17 17 17 18 18 18 18 18 18 18 17 18 17 17
18 19 19 19 19 19 19 19 19 19 19 19 18 17 18 17 17 16 17 19 19 17 16 16 15 15 16 16 16 16 17 17 18 18 18 18 18 19 19 18 17 16 17
17 18 18 18 18 18 18 18 19 20 19 18 18 18 19 18 17 17 16 17 18 15 16 16 16 16 17 16 17 17 18 18 18 18 18 18 18 19 18 19 18 19 19
16 16 17 18 18 18 18 18 18 19 20 20 19 17 18 18 18 18 15 15 16 15 15 16 17 17 17 17 17 18 19 18 17 18 18 19 19 19 19 19 19 19 19
15 16 17 17 17 17 17 18 18 19 19 19 19 18 17 17 18 16 14 15 16 16 16 16 16 16 17 17 17 18 18 18 18 18 18 18 19 19 19 20 19 19 19
14 14 15 15 16 16 17 17 18 19 19 19 19 19 18 15 14 13 14 14 16 19 18 18 17 17 17 17 17 17 17 17 17 18 18 19 19 20 20 20 20 20 20
13 13 14 14 15 16 16 17 18 18 18 19 19 19 18 17 18 17 13 14 15 17 18 18 17 17 17 17 17 18 18 17 17 18 18 18 19 19 20 20 20 20 20
13 13 13 14 14 14 16 16 16 18 18 19 19 19 18 16 18 19 18 16 14 15 17 18 17 17 18 18 18 18 17 17 18 18 18 19 19 20 20 20 20 20 20
13 13 13 13 14 14 14 15 15 17 18 19 19 19 18 15 17 18 19 18 17 17 18 18 18 18 18 18 19 19 19 19 19 18 18 19 19 19 20 20 20 20 20
12 12 13 13 12 13 15 15 15 16 17 18 18 19 20 17 16 17 18 18 17 17 17 18 18 19 18 18 19 19 18 19 20 18 18 19 20 19 19 19 19 19 19
11 12 12 12 12 12 13 14 14 14 16 17 18 18 19 19 19 17 16 16 18 18 18 17 16 17 18 17 17 17 18 19 19 19 19 19 20 19 20 20 19 19 18
11 11 11 11 12 12 13 13 14 15 16 17 18 18 19 19 18 17 16 16 17 18 18 16 15 16 17 18 18 17 18 19 19 19 19 19 19 19 19 19 18 18 17

GFSGL_925_temp_240.txt.gz
Temp
21 20 21 23 23 22 22 23 24 24 23 23 24 24 24 24 24 23 24 24 24 24 24 24 24 24 24 26 24 25 25 25 27 28 27 26 23 24 25 24 23 23 24
23 21 21 23 23 21 22 24 24 23 23 23 23 23 23 24 24 23 23 24 24 24 24 25 24 25 24 24 25 25 26 26 26 26 26 24 24 24 24 24 24 25 25
24 23 21 21 21 22 23 23 24 23 23 24 23 23 24 24 23 23 23 24 24 25 25 24 25 25 24 25 25 25 26 25 24 25 26 26 26 26 24 24 24 25 25
24 24 24 22 22 22 22 22 22 23 24 24 23 23 23 23 23 23 23 23 24 24 24 25 25 25 25 24 23 24 24 24 24 25 26 25 27 27 25 26 26 24 26
23 23 23 23 23 22 23 23 22 23 23 24 23 23 23 23 23 23 23 23 23 24 24 24 25 25 24 24 24 24 24 24 26 25 26 28 28 28 28 27 27 27 27
24 24 23 23 23 23 23 23 23 23 22 23 23 25 26 24 23 23 23 23 23 23 23 24 24 24 23 23 24 24 24 24 24 26 28 28 27 26 26 26 26 26 27
24 24 24 24 24 23 22 22 22 23 23 23 22 24 24 24 24 24 24 23 23 22 23 23 24 25 24 23 23 24 23 23 23 23 24 25 26 24 23 22 24 23 24
24 24 24 24 24 23 23 22 22 22 22 22 22 22 21 23 24 25 25 24 22 23 24 24 23 24 24 24 23 23 23 24 23 23 24 24 23 22 21 21 21 20 21
24 24 24 24 24 24 23 22 22 22 22 21 21 20 21 21 22 22 20 20 20 21 21 22 22 23 23 24 23 23 23 24 23 23 22 22 22 21 21 21 23 23 25
25 24 23 23 23 23 23 22 22 21 22 22 22 21 21 20 20 19 19 18 21 22 22 21 21 23 23 23 23 23 23 23 24 22 20 21 21 19 19 18 21 23 23
24 23 23 23 23 22 22 22 22 22 21 21 21 21 21 21 20 18 20 20 20 22 23 24 23 22 22 23 23 23 22 23 23 23 22 22 22 21 21 19 19 20 20
22 22 22 22 22 24 23 22 21 21 21 22 22 22 23 22 20 18 19 20 20 19 19 22 25 23 22 23 23 23 23 22 21 21 23 24 24 24 23 21 20 18 18
22 22 22 22 22 22 22 21 22 23 23 23 24 25 25 25 22 20 19 20 21 18 17 19 19 21 21 22 22 22 22 22 22 23 24 24 24 23 21 19 19 18 18
21 21 21 22 22 22 22 23 23 23 24 24 24 24 25 24 24 23 21 20 19 19 19 18 18 19 19 20 19 19 19 19 21 22 24 24 23 22 21 22 21 20 19
20 21 21 21 22 22 22 22 22 22 22 23 23 23 23 24 24 21 20 20 21 21 18 16 17 17 17 17 17 17 18 18 19 21 22 23 22 22 22 22 22 20 18
19 20 21 22 22 22 22 22 22 21 20 20 20 19 20 20 20 19 19 17 17 17 16 16 16 16 17 16 17 18 18 18 19 21 22 23 22 22 23 21 22 20 19
18 19 20 20 21 22 22 22 22 22 22 21 21 20 19 18 18 19 19 16 16 15 16 17 16 16 16 17 18 18 17 18 20 22 22 22 22 22 21 22 22 22 22
16 16 17 19 19 20 20 21 21 22 23 23 23 21 19 18 18 18 18 14 15 14 15 17 17 17 17 17 18 18 18 18 19 20 22 22 22 22 22 23 23 23 23
15 15 15 17 18 18 18 19 20 20 21 22 22 20 19 18 18 18 15 15 15 18 17 18 18 17 17 18 19 20 18 18 19 20 21 22 22 22 23 23 23 22 22
15 14 14 14 14 15 16 18 18 18 20 21 21 22 20 17 18 19 15 13 15 18 22 21 21 18 17 18 19 19 18 18 18 19 20 21 22 23 23 23 22 22 22
14 16 17 16 16 15 15 15 17 19 20 19 20 21 20 19 19 22 22 18 16 18 20 22 22 20 17 18 18 18 18 19 18 19 20 21 21 21 21 22 23 23 23
14 16 16 16 16 17 17 16 16 16 17 20 19 20 20 19 20 22 22 23 20 19 20 21 21 21 20 19 19 18 19 18 18 20 19 20 19 20 22 23 23 23 23
13 14 15 15 15 15 14 16 16 17 18 19 19 19 19 19 20 21 22 23 23 21 20 19 19 19 20 20 20 20 19 18 19 19 18 18 18 18 22 22 22 22 22
11 13 14 14 15 15 15 14 14 15 17 17 18 18 20 21 21 21 21 22 22 21 21 21 20 19 20 20 20 20 20 20 20 19 19 18 17 19 21 22 22 22 22
10 12 13 14 14 14 13 13 13 14 15 16 15 15 18 20 20 20 20 20 22 21 22 22 22 22 20 19 19 20 22 21 21 20 18 18 19 21 22 22 22 22 22
11 12 12 11 10 11 11 12 13 14 14 15 17 16 17 18 20 20 20 19 20 21 22 22 22 21 21 20 19 19 18 19 19 18 18 18 21 22 22 22 22 22 21

GFSGL_925_temp_246.txt.gz
Temp
25 24 22 20 20 20 20 20 22 22 22 24 24 24 24 24 24 24 23 24 24 24 24 24 25 25 25 26 26 26 25 25 24 27 25 25 25 26 26 25 25 25 25
26 24 23 22 22 20 19 20 21 22 22 24 24 24 24 24 24 24 24 24 24 24 24 24 24 24 24 25 25 25 25 25 25 25 25 25 25 25 25 25 25 25 25
27 26 24 22 22 22 22 23 22 23 24 24 24 23 24 24 25 24 23 24 24 24 24 24 24 24 24 24 25 25 25 25 25 25 25 26 26 26 25 25 25 25 26
26 26 26 24 23 23 22 23 23 23 23 24 24 23 24 24 24 24 24 24 24 24 24 24 24 24 24 24 25 25 25 25 25 24 24 25 25 26 26 26 26 26 26
25 25 24 24 24 23 23 23 22 22 22 22 23 23 24 24 25 24 24 24 24 23 24 24 24 24 24 25 25 24 25 24 24 24 24 24 25 26 27 27 27 27 26
26 25 25 25 25 24 24 24 24 23 22 23 22 23 23 24 24 24 24 24 24 23 23 24 24 24 24 24 25 25 25 25 24 23 23 23 24 26 26 26 26 25 24
26 26 26 25 25 25 25 24 24 23 23 23 22 22 22 22 22 23 23 23 22 23 22 22 22 23 23 23 24 24 23 24 24 24 24 24 25 25 25 24 24 24 24
26 26 25 25 25 24 24 24 23 23 23 23 23 23 23 22 23 22 22 22 21 21 22 22 22 22 23 24 24 23 24 24 24 24 24 24 24 24 24 24 24 23 23
26 26 26 25 24 24 23 23 23 23 23 23 23 23 23 23 23 22 22 21 21 21 21 21 22 23 23 23 23 23 23 24 23 24 23 24 24 24 24 23 23 22 22
26 25 25 25 24 24 23 23 23 23 22 23 23 23 23 23 23 22 22 21 21 22 22 22 23 23 24 23 23 23 22 22 23 23 23 23 22 22 23 23 22 22 23
25 24 24 24 23 23 23 23 23 23 22 22 22 22 22 22 22 22 22 22 21 21 22 23 24 24 24 24 22 23 23 23 22 21 22 23 22 21 22 22 22 22 22
23 23 23 23 23 23 23 22 22 22 22 22 22 22 23 23 24 24 23 23 22 21 21 21 22 22 22 22 21 22 22 21 22 22 21 21 21 20 21 23 22 22 21
22 22 21 21 21 22 22 22 22 22 22 22 23 24 25 26 26 26 25 24 22 21 21 20 20 21 20 21 21 20 21 20 20 21 21 21 21 21 22 23 22 21 20
22 22 21 21 21 21 21 22 22 23 23 23 24 24 25 24 23 23 22 21 20 20 20 20 20 20 20 19 17 18 19 19 19 20 21 22 21 22 21 22 21 21 20
21 21 21 21 22 22 22 22 23 23 23 23 24 23 23 23 23 23 22 21 21 20 20 20 20 20 19 19 18 17 18 18 19 20 21 21 20 21 21 22 23 21 21
21 21 21 21 21 21 21 21 22 22 23 22 22 23 23 23 22 22 22 22 21 20 19 19 20 21 20 19 19 18 17 18 18 20 20 18 19 20 20 22 23 22 21
20 20 20 19 19 19 19 19 20 19 20 21 22 22 22 22 22 22 21 21 20 19 17 18 19 20 20 18 18 18 17 18 18 18 19 18 18 20 21 21 23 23 21
18 19 18 18 18 18 18 18 18 19 20 20 20 21 20 21 21 21 21 20 18 18 16 18 18 18 19 19 18 18 18 17 18 18 18 19 20 20 20 20 21 22 21
16 16 16 16 16 17 18 18 18 18 19 19 20 20 19 19 20 20 20 19 19 19 19 20 19 18 19 19 18 18 19 18 17 17 18 19 19 19 19 19 21 23 23
14 15 14 15 15 16 17 18 17 18 17 17 18 19 20 19 18 18 19 18 18 17 18 19 21 21 20 20 19 18 18 19 17 17 17 19 19 18 17 17 20 23 23
13 14 14 14 16 16 16 16 17 18 18 17 18 19 19 19 19 19 19 18 17 18 19 20 20 21 21 21 20 19 19 19 18 17 17 18 18 17 17 18 21 23 23
11 11 12 13 13 13 15 16 16 17 17 17 17 18 18 19 19 18 19 19 19 19 20 21 21 21 21 20 20 19 19 19 18 16 16 17 17 17 17 17 19 19 22
9 10 10 11 11 12 13 15 15 15 16 16 16 16 16 17 17 17 18 18 19 19 21 21 21 22 22 21 20 20 19 18 17 16 16 16 17 17 16 16 16 17 19
8 9 10 10 11 12 13 14 14 14 14 13 13 13 14 14 15 16 16 17 18 19 21 20 20 21 22 22 21 20 19 19 18 17 16 15 15 16 15 15 16 17 18
8 8 8 9 9 9 10 11 11 11 11 11 11 12 13 14 14 14 15 16 17 18 19 20 21 22 22 22 21 20 20 19 18 17 16 15 15 15 15 15 15 17 18
7 7 7 7 8 8 9 9 9 10 10 10 12 12 13 13 14 15 15 16 16 18 19 20 21 22 21 22 22 21 20 20 19 18 17 16 16 15 15 15 15 19 19